When you browse on this site, cookies collect data to enhance your experience and personalize the content and advertising you see.
Visit our Privacy Policy to learn more. By continuing to use the site, you agree to this use of cookies and data.
  • In Belgium
  • List of Countries
  • For 7 days
  • Water Temperature
  • Satellite Maps
  • Weather Map
  • Weather Widgets
  • user-avatar
    Login

    Hourly Weather Bajdabo

    Today, 14 December, Friday

    Time Temperature Precipitation Wind Pressure Humidity
    00:00 +27°C° 0 mm 6 mps 723 mmHg 71%
    01:00 +26°C° 0 mm 6 mps 723 mmHg 73%
    02:00 +26°C° 0 mm 5 mps 723 mmHg 74%
    03:00 +25°C° 0 mm 5 mps 723 mmHg 77%
    04:00 +25°C° 0 mm 5 mps 723 mmHg 78%
    05:00 +25°C° 0 mm 5 mps 723 mmHg 79%
    06:00 +25°C° 0 mm 5 mps 723 mmHg 80%
    07:00 +26°C° 0 mm 5 mps 724 mmHg 72%
    08:00 +28°C° 0 mm 6 mps 724 mmHg 64%
    09:00 +29°C° 0 mm 7 mps 725 mmHg 53%
    10:00 +32°C° 0 mm 7 mps 724 mmHg 47%
    11:00 +33°C° 0 mm 7 mps 724 mmHg 40%
    12:00 +35°C° 0 mm 7 mps 724 mmHg 34%
    13:00 +36°C° 0 mm 6 mps 723 mmHg 32%
    14:00 +36°C° 0 mm 6 mps 722 mmHg 30%
    15:00 +36°C° 0 mm 5 mps 722 mmHg 28%
    16:00 +35°C° 0 mm 5 mps 722 mmHg 30%
    17:00 +34°C° 0 mm 4 mps 722 mmHg 31%
    18:00 +34°C° 0 mm 3 mps 721 mmHg 33%
    19:00 +33°C° 0 mm 3 mps 722 mmHg 35%
    20:00 +32°C° 0 mm 4 mps 722 mmHg 38%
    21:00 +30°C° 0 mm 4 mps 722 mmHg 40%
    22:00 +28°C° 0 mm 4 mps 723 mmHg 51%
    23:00 +27°C° 0 mm 5 mps 723 mmHg 61%

    Tomorrow, 15 December, Saturday

    Time Temperature Precipitation Wind Pressure Humidity
    00:00 +26°C° 0 mm 6 mps 723 mmHg 72%
    01:00 +26°C° 0 mm 5 mps 722 mmHg 73%
    02:00 +25°C° 0 mm 5 mps 722 mmHg 75%
    03:00 +25°C° 0 mm 5 mps 722 mmHg 76%
    04:00 +23°C° 0 mm 5 mps 722 mmHg 75%
    05:00 +23°C° 0 mm 5 mps 723 mmHg 74%
    06:00 +23°C° 0 mm 5 mps 723 mmHg 73%
    07:00 +26°C° 0 mm 6 mps 723 mmHg 65%
    08:00 +27°C° 0 mm 7 mps 724 mmHg 56%
    09:00 +29°C° 0 mm 8 mps 724 mmHg 47%
    10:00 +32°C° 0 mm 8 mps 724 mmHg 41%
    11:00 +33°C° 0 mm 8 mps 724 mmHg 35%
    12:00 +35°C° 0 mm 8 mps 723 mmHg 29%
    13:00 +36°C° 0 mm 7 mps 723 mmHg 27%
    14:00 +36°C° 0 mm 7 mps 722 mmHg 25%
    15:00 +38°C° 0 mm 7 mps 721 mmHg 23%
    16:00 +36°C° 0 mm 6 mps 721 mmHg 24%
    17:00 +34°C° 0 mm 5 mps 721 mmHg 25%
    18:00 +33°C° 0 mm 4 mps 721 mmHg 27%
    19:00 +32°C° 0 mm 4 mps 722 mmHg 28%
    20:00 +30°C° 0 mm 4 mps 722 mmHg 29%
    21:00 +29°C° 0 mm 4 mps 723 mmHg 30%
    22:00 +28°C° 0 mm 4 mps 723 mmHg 37%
    23:00 +27°C° 0 mm 5 mps 723 mmHg 44%

    Day after tomorrow, 16 December, Sunday

    Time Temperature Precipitation Wind Pressure Humidity
    00:00 +26°C° 0 mm 5 mps 722 mmHg 51%
    01:00 +26°C° 0 mm 5 mps 722 mmHg 58%
    02:00 +25°C° 0 mm 5 mps 722 mmHg 64%
    03:00 +23°C° 0 mm 4 mps 721 mmHg 70%
    04:00 +23°C° 0 mm 4 mps 722 mmHg 70%
    05:00 +23°C° 0 mm 4 mps 722 mmHg 70%
    06:00 +22°C° 0 mm 5 mps 722 mmHg 70%
    07:00 +24°C° 0 mm 6 mps 723 mmHg 65%
    08:00 +27°C° 0 mm 7 mps 724 mmHg 59%
    09:00 +28°C° 0 mm 8 mps 724 mmHg 53%
    10:00 +31°C° 0 mm 8 mps 724 mmHg 46%
    11:00 +33°C° 0 mm 7 mps 723 mmHg 39%
    12:00 +35°C° 0 mm 7 mps 723 mmHg 32%
    13:00 +36°C° 0 mm 6 mps 722 mmHg 29%
    14:00 +36°C° 0 mm 6 mps 721 mmHg 26%
    15:00 +38°C° 0 mm 6 mps 721 mmHg 23%
    16:00 +36°C° 0 mm 5 mps 721 mmHg 24%
    17:00 +35°C° 0 mm 4 mps 721 mmHg 26%
    18:00 +34°C° 0 mm 4 mps 721 mmHg 28%
    19:00 +32°C° 0 mm 4 mps 721 mmHg 29%
    20:00 +30°C° 0 mm 4 mps 722 mmHg 31%
    21:00 +29°C° 0 mm 4 mps 722 mmHg 33%
    22:00 +28°C° 0 mm 4 mps 722 mmHg 38%
    23:00 +27°C° 0 mm 4 mps 722 mmHg 43%

    17 December, Monday

    Time Temperature Precipitation Wind Pressure Humidity
    00:00 +26°C° 0 mm 4 mps 722 mmHg 48%
    01:00 +26°C° 0 mm 4 mps 721 mmHg 55%
    02:00 +25°C° 0 mm 4 mps 721 mmHg 62%
    03:00 +23°C° 0 mm 4 mps 721 mmHg 69%
    04:00 +23°C° 0 mm 4 mps 721 mmHg 69%
    05:00 +23°C° 0 mm 5 mps 722 mmHg 69%
    06:00 +22°C° 0 mm 5 mps 723 mmHg 70%
    07:00 +24°C° 0 mm 6 mps 723 mmHg 63%
    08:00 +27°C° 0 mm 7 mps 724 mmHg 57%
    09:00 +28°C° 0 mm 8 mps 725 mmHg 50%
    10:00 +30°C° 0 mm 7 mps 724 mmHg 45%
    11:00 +33°C° 0 mm 7 mps 723 mmHg 39%
    12:00 +34°C° 0 mm 6 mps 723 mmHg 33%
    13:00 +35°C° 0 mm 6 mps 722 mmHg 31%
    14:00 +36°C° 0 mm 5 mps 721 mmHg 28%
    15:00 +36°C° 0 mm 5 mps 720 mmHg 25%
    16:00 +35°C° 0 mm 4 mps 720 mmHg 26%
    17:00 +34°C° 0 mm 4 mps 720 mmHg 27%
    18:00 +33°C° 0 mm 3 mps 720 mmHg 28%
    19:00 +31°C° 0 mm 3 mps 721 mmHg 29%
    20:00 +30°C° 0 mm 3 mps 721 mmHg 29%
    21:00 +29°C° 0 mm 3 mps 722 mmHg 30%
    22:00 +29°C° 0 mm 3 mps 722 mmHg 31%
    23:00 +28°C° 0 mm 3 mps 721 mmHg 33%

    18 December, Tuesday

    Time Temperature Precipitation Wind Pressure Humidity
    00:00 +27°C° 0 mm 3 mps 721 mmHg 34%
    01:00 +26°C° 0 mm 3 mps 721 mmHg 44%
    02:00 +25°C° 0 mm 4 mps 721 mmHg 54%
    03:00 +23°C° 0 mm 4 mps 720 mmHg 64%
    04:00 +23°C° 0 mm 4 mps 721 mmHg 71%
    05:00 +22°C° 0 mm 4 mps 721 mmHg 77%
    06:00 +22°C° 0 mm 4 mps 722 mmHg 83%
    07:00 +25°C° 0 mm 5 mps 723 mmHg 74%
    08:00 +27°C° 0 mm 6 mps 723 mmHg 64%
    09:00 +29°C° 0 mm 7 mps 724 mmHg 54%
    10:00 +30°C° 0 mm 6 mps 724 mmHg 47%
    11:00 +33°C° 0 mm 6 mps 723 mmHg 39%
    12:00 +35°C° 0 mm 5 mps 722 mmHg 31%
    13:00 +35°C° 0 mm 5 mps 722 mmHg 29%
    14:00 +36°C° 0 mm 5 mps 721 mmHg 26%
    15:00 +37°C° 0 mm 4 mps 720 mmHg 24%
    16:00 +36°C° 0 mm 4 mps 720 mmHg 25%
    17:00 +35°C° 0 mm 4 mps 720 mmHg 27%
    18:00 +34°C° 0 mm 3 mps 720 mmHg 28%
    19:00 +33°C° 0 mm 3 mps 721 mmHg 30%
    20:00 +32°C° 0 mm 4 mps 721 mmHg 32%
    21:00 +30°C° 0 mm 4 mps 722 mmHg 33%
    22:00 +29°C° 0 mm 4 mps 721 mmHg 40%
    23:00 +28°C° 0 mm 4 mps 721 mmHg 46%

    19 December, Wednesday

    Time Temperature Precipitation Wind Pressure Humidity
    00:00 +27°C° 0 mm 4 mps 721 mmHg 52%
    01:00 +26°C° 0 mm 4 mps 721 mmHg 62%
    02:00 +25°C° 0 mm 4 mps 720 mmHg 72%
    03:00 +23°C° 0 mm 4 mps 720 mmHg 83%
    04:00 +23°C° 0 mm 4 mps 721 mmHg 84%
    05:00 +23°C° 0 mm 4 mps 721 mmHg 86%
    06:00 +22°C° 0 mm 4 mps 722 mmHg 88%
    07:00 +25°C° 0 mm 5 mps 722 mmHg 77%
    08:00 +28°C° 0 mm 6 mps 723 mmHg 66%
    09:00 +30°C° 0 mm 6 mps 724 mmHg 55%
    10:00 +32°C° 0 mm 6 mps 723 mmHg 48%
    11:00 +34°C° 0 mm 6 mps 722 mmHg 41%
    12:00 +36°C° 0 mm 6 mps 722 mmHg 34%
    13:00 +36°C° 0 mm 6 mps 721 mmHg 30%
    14:00 +38°C° 0 mm 6 mps 720 mmHg 27%
    15:00 +39°C° 0 mm 5 mps 720 mmHg 24%
    16:00 +37°C° 0 mm 5 mps 720 mmHg 25%
    17:00 +36°C° 0 mm 4 mps 720 mmHg 25%
    18:00 +35°C° 0 mm 4 mps 720 mmHg 25%
    19:00 +34°C° 0 mm 4 mps 720 mmHg 28%
    20:00 +32°C° 0 mm 4 mps 721 mmHg 31%
    21:00 +30°C° 0 mm 4 mps 721 mmHg 34%
    22:00 +29°C° 0 mm 4 mps 721 mmHg 44%
    23:00 +28°C° 0 mm 5 mps 721 mmHg 55%
    Show more